Weather in Kiren

Russia / Republic of Buryatia     51°40′56″N   102°07′50″E
В апреле 2022 года жителям России запретили посещать сайт meteo.paraplan.net по решению Генеральной прокуратуры. Аудитория сайта уменьшилась в 10 раз. Владельцы сайта не видят смысла в поддержке погодного сервера в таких условиях. Сайт будет закрыт в октябре.
temp.,
°C
wind,
m/s
gust,
m/s
humid.,
%
clouds,
%
prec.,
mm/h
press.,
hPa
HPBL,
m
25 september, sun
sun2523:00+2ne1397100 1.3 1020271
02:00+2ne1299100 2.2 1020303
05:00+2ene1398100 0.6 1021158
08:00+2ne119695 0.6 1020192
11:00+5ene117437 0.0 1016626
14:00+10sse125494 0.0 1011633
17:00+11ene345197 0.0 1007430
20:00+7ene117172 0.1 101120
26 september, mon
mon2623:00+3ene379363 0.0 1016274
02:00+2n019399 0.0 101587
05:00+2ne0194100 0.0 101242
08:00+2ne1190100 0.0 100990
11:00+9ene1161100 0.0 1004249
14:00+20wsw473196 0.0 10001575
17:00+20wsw2439100 0.0 998188
20:00+12wnw1152100 0.0 99921
27 september, tue
tue2723:00+10nne225799 0.0 99926
02:00+6ene4887100 0.0 1007378
05:00+2ene4795100 0.5 1013448
08:00+2ene2397100 1.1 1015188
11:00+4ene2375100 0.4 1014885
14:00+5ene2375100 0.9 1013878
17:00+5e227399 0.3 1013770
20:00+3ene1284100 0.3 101489
28 september, wed
wed2823:00+1ne1290100 0.0 1014130
02:00+1ne0190100 0.0 1012106
05:00+1ene1293100 0.4 1010116
08:000se11100100 8.4 100950
11:00+1s01100100 6.0 101289
14:00+2ene11100100 6.4 1012158
17:00+3e119899 0.0 1012167
20:00+2se01100100 0.0 101553
29 september, thu
thu2923:00+2wsw00100100 0.1 101661
02:00+2w01100100 0.1 101569
05:00+2s01100100 0.0 101465
08:00+2e00100100 0.2 101381
11:00+2s11100100 1.1 101393
14:00+3se11100100 2.4 1013197
17:00+2ene12100100 0.4 1014209
20:00+2e01100100 0.8 1015179